FLX306 SBSG-SBSV

Flight info

Callsign FLX306
Flight time N/A
Altitude 34000
Route SIKEL UZ21 IREKI UZ30 ILPIX
Aircraft A319/M-SDE3FGHIRWY/LB1

Departure

Time 2026-05-03 23:55
Airport Rio Grande do Norte/São Gonçalo do Amarante–Governador Aluízio Alves International Airport (SBSG)

Arrival

Time N/A
Airport Deputado Luiz Eduardo Magalhães International Airport (SBSV)
Time Latitude Longitude Altitude Speed Heading
2026-05-03 23:36 -5.76418 -35.37335 274 ft 0 kts
2026-05-03 23:39 -5.76419 -35.37335 274 ft 0 kts
2026-05-03 23:46 -5.76427 -35.37336 276 ft 4 kts
2026-05-03 23:46 -5.76454 -35.37341 274 ft 4 kts 15°
2026-05-03 23:46 -5.76480 -35.37350 274 ft 4 kts 27°
2026-05-03 23:47 -5.76500 -35.37365 276 ft 4 kts 67°
2026-05-03 23:47 -5.76502 -35.37378 274 ft 1 kts 99°
2026-05-03 23:47 -5.76502 -35.37380 274 ft 0 kts 99°
2026-05-03 23:49 -5.76502 -35.37376 274 ft 1 kts 99°
2026-05-03 23:49 -5.76504 -35.37365 276 ft 2 kts 99°
2026-05-03 23:50 -5.76508 -35.37339 276 ft 7 kts 99°
2026-05-03 23:50 -5.76514 -35.37306 277 ft 8 kts 99°
2026-05-03 23:50 -5.76545 -35.37237 274 ft 9 kts 151°
2026-05-03 23:50 -5.76611 -35.37241 274 ft 10 kts 186°
2026-05-03 23:51 -5.76684 -35.37259 274 ft 11 kts 213°
2026-05-03 23:51 -5.76693 -35.37339 273 ft 13 kts 279°
2026-05-03 23:51 -5.76676 -35.37433 273 ft 14 kts 280°
2026-05-03 23:51 -5.76658 -35.37534 273 ft 15 kts 280°
2026-05-03 23:52 -5.76641 -35.37642 274 ft 16 kts 277°
2026-05-03 23:52 -5.76626 -35.37758 274 ft 17 kts 278°
2026-05-03 23:52 -5.76605 -35.37880 273 ft 18 kts 279°
2026-05-03 23:52 -5.76641 -35.37963 273 ft 11 kts 205°
2026-05-03 23:53 -5.76658 -35.37968 273 ft 0 kts 192°
2026-05-03 23:53 -5.76659 -35.37968 273 ft 0 kts 192°
2026-05-03 23:53 -5.76681 -35.37972 273 ft 7 kts 192°
2026-05-03 23:54 -5.76748 -35.37982 273 ft 12 kts 174°
2026-05-03 23:54 -5.76769 -35.37945 273 ft 0 kts 95°
2026-05-03 23:54 -5.76797 -35.37774 273 ft 54 kts 99°
2026-05-03 23:55 -5.76852 -35.37439 273 ft 92 kts 99°
2026-05-03 23:55 -5.77048 -35.36270 276 ft 160 kts 100°
2026-05-03 23:55 -5.77175 -35.35520 540 ft 164 kts 99°
2026-05-03 23:55 -5.77435 -35.34025 1395 ft 162 kts 103°
2026-05-03 23:56 -5.77559 -35.33292 1836 ft 160 kts 104°
2026-05-03 23:56 -5.77753 -35.32163 2260 ft 172 kts 105°
2026-05-03 23:56 -5.78384 -35.31098 2453 ft 192 kts 142°
2026-05-03 23:56 -5.79628 -35.30440 2734 ft 213 kts 154°
2026-05-03 23:57 -5.81015 -35.29769 3227 ft 226 kts 153°
2026-05-03 23:57 -5.82443 -35.29067 3957 ft 230 kts 153°
2026-05-03 23:57 -5.83887 -35.28349 4705 ft 234 kts 153°
2026-05-03 23:57 -5.85406 -35.27587 5184 ft 254 kts 152°
2026-05-03 23:58 -5.87015 -35.26780 5897 ft 262 kts 152°
2026-05-03 23:58 -5.88662 -35.25958 6677 ft 267 kts 153°
2026-05-03 23:58 -5.90455 -35.25385 7399 ft 275 kts 169°
2026-05-03 23:58 -5.92388 -35.25383 8124 ft 283 kts 187°
2026-05-03 23:59 -5.94314 -35.25908 8855 ft 290 kts 195°
2026-05-03 23:59 -5.96258 -35.26509 9592 ft 295 kts 195°
2026-05-03 23:59 -5.98241 -35.27118 10218 ft 303 kts 195°
2026-05-03 23:59 -6.00337 -35.27754 10416 ft 326 kts 195°
2026-05-04 00:00 -6.02580 -35.28429 10615 ft 345 kts 195°
2026-05-04 00:00 -6.04914 -35.29129 11107 ft 353 kts 195°
2026-05-04 00:00 -6.07283 -35.29843 11690 ft 358 kts 195°
2026-05-04 00:00 -6.09670 -35.30599 12271 ft 362 kts 197°
2026-05-04 00:01 -6.12042 -35.31401 12852 ft 366 kts 198°
2026-05-04 00:01 -6.14493 -35.32255 13441 ft 370 kts 198°
2026-05-04 00:01 -6.16904 -35.33100 13971 ft 374 kts 198°
2026-05-04 00:01 -6.19372 -35.33959 14474 ft 377 kts 198°
2026-05-04 00:02 -6.21862 -35.34815 14987 ft 379 kts 198°
2026-05-04 00:02 -6.24369 -35.35671 15497 ft 382 kts 198°
2026-05-04 00:02 -6.26897 -35.36524 16004 ft 384 kts 196°
2026-05-04 00:02 -6.29515 -35.37063 16497 ft 386 kts 185°
2026-05-04 00:03 -6.32199 -35.37190 17004 ft 387 kts 180°